Other Public Products
Issued by NWS Grand Forks, ND

Home | Current Version | Previous Version | Text Only | Print | Product List | Glossary Off
Versions: 1 2 3 4 5 6 7 8 9 10 11 12 13 14 15 16 17 18 19 20 21 22 23 24 25 26 27 28 29 30 31 32 33 34 35 36 37 38 39 40 41 42 43 44 45 46 47 48 49 50

000
FPUS83 KFGF 191710
OPUFGF
PRAIRIE TO PINES WEATHER ROUNDUP
NATIONAL WEATHER SERVICE EASTERN NORTH DAKOTA/GRAND FORKS ND
1100 AM CST FRI DEC 19 2014

 **SATELLITE DATA USED TO AUGMENT SKY COVER AT AUTOMATED STATIONS**
 *****  WEATHER ACROSS EASTERN NORTH DAKOTA  *****

CITY           SKY/WX    TMP DP  RH WIND       PRES   REMARKS
GRAND FORKS    FRZ DRZL  25  24  96 S10       30.06F VSB 1   WCI  15
GRAND FORKS AF CLOUDY    25  25 100 S9        30.05F FOG     WCI  16
GRAND CITY NWS NOT AVBL
BUXTON         NOT AVBL
DEVILS LAKE    CLOUDY    27  19  74 S8        29.96S WCI  18
FARGO          CLOUDY    28  25  88 S15       30.07F FOG     WCI  16
WAHPETON ARPT  CLOUDY    28  27  93 S10       30.09F WCI  19
$$

 *****  WEATHER ACROSS CENTRAL AND WESTERN NORTH DAKOTA  *****

CITY           SKY/WX    TMP DP  RH WIND       PRES   REMARKS
JAMESTOWN      CLOUDY    27  25  92 S10       29.98S FOG     WCI  17
BISMARCK       CLOUDY    25  23  92 SE3       29.97R
MINOT          CLOUDY    28  26  92 SW3       29.94R FOG
MINOT AFB      FRZ DRZL  27  27 100 W2        29.94S FOG
GARRISON         N/A     24  22  91 CALM      29.94R
WILLISTON      PTSUNNY   21  19  92 CALM      29.94F FOG
DICKINSON      MOSUNNY   35  26  69 W9        29.91R
HETTINGER      MOSUNNY   34  25  69 W10       29.95S
$$

 *****  OTHER OBSERVATIONS NORTHEAST NORTH DAKOTA  *****

CITY           SKY/WX    TMP DP  RH WIND       PRES   REMARKS
WALHALLA         N/A     25  25 100 SE9       30.04S FOG     WCI  15
LANGDON        CLOUDY    27  25  93 N5        29.98S FOG     WCI  21
CAVALIER       CLOUDY    25  23  93 S9        30.05S FOG     WCI  15
GRAFTON        NOT AVBL
CANDO          CLOUDY    27  27 100 S6        29.98S FOG     WCI  20
FORT TOTTEN    NOT AVBL
ROLLA          FOG       25  25 100 CALM      29.96S VSB 3/4
RUGBY          CLOUDY    27  27 100 S5        29.95F FOG     WCI  21
 ***** THE ABOVE OBSERVATIONS ARE NON NWS ARE NOT QUALITY
        CONTROLLED AND MAY MIS-REPORT RAIN FOR SNOW...
$$

 *****  OTHER OBSERVATIONS SOUTHEAST NORTH DAKOTA *****

CITY           SKY/WX    TMP DP  RH WIND       PRES   REMARKS
COOPERSTOWN    NOT AVBL
VALLEY CITY    CLOUDY    27  27 100 S12       30.01S FOG     WCI  16
OAKES            N/A     28  28 100 S15       30.03F FOG     WCI  17
GWINNER        CLOUDY    30  32 100 MISG      30.05S
BUFFALO        NOT AVBL
WYNDMERE         N/A     28  28 100 S8          N/A  WCI  20
 ***** THE ABOVE OBSERVATIONS ARE NON NWS ARE NOT QUALITY
       CONTROLLED AND MAY MIS-REPORT RAIN FOR SNOW...
$$

  *****  WEATHER ACROSS NORTHERN MINNESOTA  *****

CITY           SKY/WX    TMP DP  RH WIND       PRES   REMARKS
FLAG ISLAND    CLOUDY    21  18  86 S16       30.11S WCI   7
WARROAD        CLOUDY    23  19  86 SE9       30.10F WCI  13
ROSEAU         CLOUDY    25  19  80 S13       30.09F HAZE    WCI  13
HALLOCK        CLOUDY    25  25 100 S14       30.07S FOG     WCI  13
THF RVR FALLS  CLOUDY    25  23  93 S12       30.08F WCI  14
HALSTAD          N/A     27  25  91 S14         N/A  WCI  16
FOSSTON        CLOUDY    21  21 100 SE7       30.09F FOG     WCI  13
BAUDETTE       CLOUDY    22  17  81 S7        30.11F WCI  13
WASKISH        CLOUDY    23  19  86 SE5       30.13S WCI  17
CROOKSTON      CLOUDY    27  25  93 S13       30.09F FOG     WCI  16
$$
  *****  WEATHER ACROSS CENTRAL AND WEST MINNESOTA  *****

CITY           SKY/WX    TMP DP  RH WIND       PRES   REMARKS
BEMIDJI        CLOUDY    21  19  94 SE9       30.12S FOG     WCI  10
PARK RAPIDS    CLOUDY    22  20  92 SE12      30.11F FOG     WCI  10
WADENA         FOG       21  21 100 NW6       30.12F VSB 3/4 WCI  14
DETROIT LAKES  CLOUDY    27  25  93 S13       30.09F FOG     WCI  16
MOORHEAD       CLOUDY    28  28 100 S15       30.08F FOG     WCI  17
FERGUS FALLS   CLOUDY    27  25  93 S14       30.13F FOG     WCI  15
ELBOW LAKE     CLOUDY    26  26  98 S14       30.11S FOG     WCI  14
MORRIS MN      SUNNY     28  27  93 S14       30.11F FOG     WCI  17
STAPLES        CLOUDY    19  19 100 SE8       30.14F FOG     WCI   9
WHEATON        CLOUDY    27  25  93 S8        30.12F FOG     WCI  18
$$
  *****  WEATHER ELSEWHERE ACROSS MINNESOTA  *****

CITY           SKY/WX    TMP DP  RH WIND       PRES   REMARKS
DULUTH         LGT SNOW  22  19  89 S8        30.20F FOG     WCI  12
INTRNTL FALLS  LGT SNOW  22  17  81 SE6       30.16S WCI  14
ELY            CLOUDY    19  19 100 S5        30.19F WCI  13
CLOQUET        CLOUDY    23  19  86 S5        30.20F WCI  17
BRAINERD       CLOUDY    21  19  92 SE7       30.17F FOG     WCI  12
HIBBING        CLOUDY    23  17  78 S6        30.18F WCI  16
ALEXANDRIA     FOG       25  24  96 S12       30.12F VSB 1   WCI  14
SAINT CLOUD    CLOUDY    24  20  84 SE8       30.20F FOG     WCI  15
MINNEAPOLIS    CLOUDY    25  20  81 SE7       30.24F WCI  17
$$

  *****  WEATHER ACROSS SOUTH DAKOTA  *****

CITY           SKY/WX    TMP DP  RH WIND       PRES   REMARKS
SIOUX FALLS    CLOUDY    30  27  88 S14       30.14F WCI  19
BROOKINGS      NOT AVBL
WATERTOWN      CLOUDY    27  25  92 S16       30.07S FOG     WCI  15
HURON          CLOUDY    28  26  92 S13G22    30.08F FOG     WCI  17
SISSETON         N/A     30  28  92 SW10      30.07S WCI  21
ABERDEEN       CLOUDY    29  26  89 S14       30.05F FOG     WCI  18
MITCHELL       CLOUDY    29  28  96 S14       30.11F FOG     WCI  18
PIERRE         PTSUNNY   21  19  92 S3        30.02S
MOBRIDGE       MOSUNNY   26  23  88 S9        29.96F WCI  17
RAPID CITY     SUNNY     41  23  48 W3        29.98S
$$

  *****  SOME WEATHER IN NEARBY STATES *****

CITY           SKY/WX    TMP DP  RH WIND       PRES   REMARKS
GLASGOW MT     SUNNY     27  23  85 CALM      29.92R
GREAT FALLS MT CLOUDY    38  27  64 S13       29.84F
CHEYENNE WY    SUNNY     36  14  40 W22G32    30.05S
SCOTTSBLUFF NE SUNNY     19  17  92 N5        30.06S WCI  12
OMAHA NE       CLOUDY    33  29  85 S10       30.25S FOG     WCI  25
DES MOINES IA  CLOUDY    31  26  82 S6        30.28F FOG
DAVENPORT IA   CLOUDY    26  19  74 E6        30.33F WCI  19
CHICAGO IL     CLOUDY    29  21  72 NW3       30.31F
EAU CLAIRE WI  CLOUDY    25  18  74 SE7       30.26F WCI  17
LA CROSSE WI   CLOUDY    28  18  66 SE3       30.30F
$$

  *****  SOME NATIONAL WEATHER *****

CITY           SKY/WX    TMP DP  RH WIND       PRES   REMARKS
LA GUARDIA NY  PTSUNNY   35  21  56 N20G25    30.04F WCI  24
RALEIGH NC     MOSUNNY   49  22  34 VRB7      30.15F
ATLANTA GA     PTSUNNY   51  34  52 NW6       30.15F
NEW ORLEANS LA CLOUDY    54  50  86 E13       30.11F
OKLAHOMA CITY  DRIZZLE   40  37  89 N6        30.25R FOG
ALBUQUERQUE NM MOSUNNY   39  24  55 NW20      30.25R
SALT LAKE CITY PTSUNNY   37  28  70 SE12      30.19S
LOS ANGELES CA MOSUNNY   56  45  66 NE5       30.24R
BOISE ID       CLOUDY    44  33  65 SE13      30.04R
SEATTLE WA     CLOUDY    47  41  80 S9        29.91R
$$

*** WEATHER ACROSS MANITOBA...SASKATCHEWAN AND ONTARIO ***
                ***ONTARIO***

CITY           SKY/WX    TMP DP  RH WIND       PRES   REMARKS
GERALDTON      SUNNY      7   1  78 CALM      30.27F
THUNDER BAY    CLOUDY    10   9  92 SW5       30.30F WCI   2
SIOUX LOOKOUT  FLURRIES  21  18  86 SE7       30.16F WCI  13
TORONTO        PTSUNNY   28  19  69 N15       30.19F WCI  17
BIG TROUT LK   FLURRIES   3   1  92 SW5       30.16F WCI  -6
PICKLE LAKE    CLOUDY    18  14  86 S8        30.17F WCI   7
DRYDEN         CLOUDY    21  19  93 S13       30.13F WCI   9
KENORA         NOT AVBL
$$
                *** MANITOBA***

CITY           SKY/WX    TMP DP  RH WIND       PRES   REMARKS
BRANDON        CLOUDY    21  19  93 N3        29.99S FOG
DAUPHIN        FLURRIES  21  19  93 SE3       30.00F
ISLAND LAKE    FLURRIES   9   5  85 SE7       30.09F WCI  -3
PILOT MOUND      N/A     25  25 100 S1          N/A
THE PAS        FRZ DRZL  18  16  93 SE6       29.98R FOG     WCI   9
THOMPSON       LGT SNOW  12  10  92 SW5       29.99S WCI   4
WINNIPEG       LGT SNOW  23  21  93 S14       30.07S FOG     WCI  11
LYNN LAKE      CLOUDY    16  16 100 W5        29.91S WCI   9
GILLAM         FLURRIES  10   7  85 SW8       30.01S WCI  -1
$$
                ***SASKATCHEWAN***

CITY           SKY/WX    TMP DP  RH WIND       PRES   REMARKS
ESTEVAN        FOG       23  21  93 SW7       29.93S VSB 1/4 WCI  15
KINDERSLEY     NOT AVBL
LLOYDMINSTER   NOT AVBL
PRINCE ALBERT  NOT AVBL
REGINA         FOG       18  16  93 NW3       29.94S VSB 3/4
YORKTON        CLOUDY    23  23 100 CALM      29.93S FOG
N. BATTLEFORD  FOG       14  12  92 E5        29.92F VSB 1/4 WCI   6



USA.gov is the U.S. government's official web portal to all federal, state and local government web resources and services.